EDT,Max TemperatureF,Mean TemperatureF,Min TemperatureF,Max Dew PointF,MeanDew PointF,Min DewpointF,Max Humidity, Mean Humidity, Min Humidity, Max Sea Level PressureIn, Mean Sea Level PressureIn, Min Sea Level PressureIn, Max VisibilityMiles, Mean VisibilityMiles, Min VisibilityMiles, Max Wind SpeedMPH, Mean Wind SpeedMPH, Max Gust SpeedMPH,PrecipitationIn, CloudCover, Events, WindDirDegrees
2013-5-1,72,63,53,52,43,35,93,61,28,30.39,30.33,30.26,10,10,8,17,8,22,0.01,6,Rain,55
2013-5-2,69,57,45,45,43,39,86,62,37,30.41,30.36,30.30,10,10,10,13,6,20,0.00,2,,62
2013-5-3,69,56,42,49,45,37,93,63,33,30.37,30.32,30.24,10,9,6,14,5,22,0.00,4,,62
2013-5-4,65,54,43,47,42,37,83,66,48,30.30,30.23,30.15,10,10,10,13,7,16,0.00,5,,57
2013-5-5,63,52,41,45,40,36,82,65,48,30.22,30.17,30.11,10,10,10,16,8,29,0.00,4,,46
2013-5-6,59,55,50,57,52,46,100,89,77,30.14,30.05,29.98,10,4,2,17,11,22,0.58,8,Rain,46
2013-5-7,66,60,53,59,56,53,100,92,84,29.97,29.93,29.87,10,5,2,17,7,24,1.58,8,Rain,48
2013-5-8,63,56,49,56,53,50,100,89,78,30.00,29.97,29.94,10,6,0,17,3,22,0.20,7,Fog-Rain,84
2013-5-9,79,62,44,58,49,43,100,68,35,30.01,29.96,29.93,10,5,0,10,3,12,0.02,4,Fog-Rain,213
2013-5-10,83,69,54,61,56,52,93,65,37,30.02,29.95,29.87,10,9,2,18,6,26,0.19,2,Rain-Thunderstorm,208
2013-5-11,79,71,62,63,58,53,90,68,45,29.90,29.79,29.71,10,10,6,17,5,22,T,5,Rain,202
2013-5-12,67,57,47,52,35,25,65,45,24,30.05,29.87,29.76,10,10,10,16,6,22,0.00,1,,306
2013-5-13,60,49,38,35,28,23,76,51,26,30.19,30.10,30.04,10,10,10,13,4,18,0.00,3,,288
2013-5-14,69,51,33,40,34,29,89,59,28,30.22,30.13,30.02,10,10,10,15,5,23,0.00,1,,195
2013-5-15,88,69,50,62,51,40,71,51,31,30.00,29.87,29.73,10,10,10,22,9,28,0.00,1,,200
2013-5-16,85,75,65,65,57,49,93,65,36,29.95,29.86,29.79,10,9,2,14,4,18,0.22,2,Rain,218
2013-5-17,81,71,60,62,57,50,90,63,35,30.12,30.05,29.94,10,10,6,12,4,22,0.07,3,Rain,169
2013-5-18,65,63,61,62,60,58,100,94,87,30.22,30.17,30.12,10,4,1,12,5,14,0.11,8,Rain,51
2013-5-19,68,64,59,64,61,57,100,91,81,30.20,30.15,30.08,7,3,1,12,4,30,0.07,8,Rain,38
2013-5-20,81,73,64,67,65,63,100,79,58,30.11,30.06,29.98,10,7,0,10,4,22,0.00,6,Fog,182
2013-5-21,84,75,65,69,66,64,100,80,59,30.01,29.97,29.88,10,6,1,12,6,17,0.00,5,,192
2013-5-22,87,77,66,69,67,62,97,74,51,29.95,29.90,29.84,10,7,2,17,8,23,0.10,3,Rain,188
2013-5-23,78,71,64,67,65,59,100,84,67,29.91,29.85,29.75,10,8,0,12,6,18,1.20,5,Rain-Thunderstorm,191
2013-5-24,63,56,48,61,44,31,97,67,37,30.17,29.97,29.77,10,10,10,21,8,39,T,4,,334
2013-5-25,69,55,40,35,30,27,65,43,21,30.26,30.18,30.11,10,10,10,20,7,29,0.00,0,,342
2013-5-26,75,59,43,41,34,28,77,48,19,30.25,30.19,30.13,10,10,10,12,3,17,0.00,0,,312
2013-5-27,67,55,42,53,44,37,92,66,40,30.29,30.24,30.18,10,10,10,7,0,16,T,3,,25
2013-5-28,85,68,50,64,58,50,96,70,44,30.20,30.13,30.06,10,10,10,22,8,59,0.00,2,,193
2013-5-29,88,76,64,67,63,60,93,67,40,30.14,30.11,30.08,10,10,9,16,8,22,0.00,0,,201
2013-5-30,89,77,64,67,62,58,81,58,34,30.19,30.15,30.12,10,10,10,14,7,17,0.00,0,,190
2013-5-31,88,76,64,64,62,60,87,64,40,30.16,30.11,30.04,10,10,10,18,7,25,0.00,0,,201